STARLINK-3089, 49166

Orbit data source: Space-Track

STARLINK-3089, 49166 is a payload satellite owned by SpaceX/Seattle (US) in LEO that was launched on Tue, 14 Sep 2021 UTC via an FALCON 9 launch vehicle from the Air Force Western Test Range (AFWTR). Payload-class satellites include a variety of spacecraft equipped with specific instruments for various scientific and technological missions. These include communications satellites like Starlink; space stations such as the ISS; scientific satellites like the Hubble; Earth observation satellites from companies like Planet Labs, Umbra, and HawkEye 360; GPS; miniature CubeSats for education and research; and military/defense satellites.

Loading next visibility...
Identifier
49166, 2021-082AN
Orbit
LEO
Last TLE update
16 hours ago
Origin
Manufacturer
SpaceX/Seattle
Mission
Operational Commercial Communications
Bus & Motor
STARLINK, Unknown motor
Mass
297 kg wet, ~275 kg dry
Launch date (UTC)
2021-09-14 (4 years ago)
Launch vehicle
FALCON 9
Launch site
Air Force Western Test Range (AFWTR)
Object type
Payload
Rocket body
Debris
Shape & HBR
Box + 1 Pan, 8.86 m
Radar Cross Section
13.562 m², Large (>1 m²)

Expand to show TLE details & history

TLE from 16 hours ago
0 STARLINK-3089
1 49166U 21082AN  25128.68324946 -.00000668  00000-0 -48221-4 0  9992
2 49166  69.9988 323.4866 0002977 268.7679  91.3139 14.98328697201982
Epoch: 2025-05-08T16:23Z
Definitive object data (Epoch: 2025-05-08T16:23:52.753Z)
Latitude
-0.00002°
Longitude
-149.23344°
Altitude
574.532 km
Speed
7.574 km/s
True Right ascension
21h 33m 56s
True Declination
0° 00' 00"
Sunlit
Object was in daylight at TLE epoch
Visualization TLE readout
Latitude
-62.62656°
Longitude
73.49674°
Altitude
593.493 km
Speed
7.563 km/s
Apparent Right ascension
06h 48m 02s
Apparent Declination
-68° 29' 09"
Sunlit
Object is in full shadow
Visualization observer readout
Local Sidereal Time
16:05:05
Azimuth
204.091° SW
Elevation
-54.104°
Doppler factor
1
Orbital elements
Apogee altitude
572.077 km
Perigee altitude
567.94 km
Semi-major axis
6,948.145 km
Eccentricity
0.0002977
Inclination
69.9988°
RAAN
323.4866°
Arg. of periapsis
268.7679°
True anomaly
91.348°
Mean anomaly
91.3139°
Eccentric anomaly
91.33095°
Mean motion
3.74748 °/min
BSTAR
-0.000048221
Orbital period
96.06 mins
Loading maneuver chart data...
Loading SW <> Apogee altitude chart data...
Loading historical data...
Loading historical data...
Loading historical data...
Loading historical data...
Loading historical data...
Loading historical data...
Loading historical data...

STARLINK-3089 Visibility forecast

Observer location: undefined°, undefined°

Span
Click to sort rows by Start time (UTC) header in descending order
Start Az.
Max El. time (UTC)
Max El. Az.
Max El.
End time (UTC)
End Az.
4 mins2025-05-09 13:22:00.555Z138.685° SSE2025-05-09 13:24:00.555Z105.224° ESE17.631°2025-05-09 13:26:00.555Z71.04° E
5 mins2025-05-09 15:00:00.555Z248.703° W2025-05-09 15:02:00.555Z297.134° NW30.038°2025-05-09 15:05:00.555Z0.588° NNE
6 mins2025-05-09 23:24:00.555Z3.731° NNE2025-05-09 23:26:00.555Z51.537° ENE32.301°2025-05-09 23:30:00.555Z130.262° SE
|